Retour au catalogue

COSMOS 2251 DEB

ActifLEO
NORAD 34681·DEBRIS·🇷🇺 Russia

Lancé Jun 16, 1993 depuis Plesetsk Cosmodrome

Loading…

Prochains Passages (prochaines 24 heures)

TLE

FraisSource: Space-Track

Époque: Sep 14, 2026, 00:49 UTC

1 34681U 93036YB  26257.03431934  .00006188  00000-0  66975-3 0  9991
2 34681  74.0586 103.6497 0022884  97.7848  53.8938 14.88270919933607

Suivez COSMOS 2251 DEB en temps réel avec AllMySat

Download on the App Store